| time (UTC) | temp F | wind direction | speed knots | gust knots | rain 1hr in | rain 24hr in | rain mn in | humidity % | barometer mb |
| 20260510063019 | 54 | 135 | 1.7 | 3.5 | 0.00 | 0.00 | 0.00 | 70 | 1016.2 |
| 20260510062016 | 53 | 90 | 1.7 | 3.5 | 0.00 | 0.00 | 0.00 | 70 | 1016.5 |
| 20260510061013 | 53 | 45 | 1.7 | 3.5 | 0.00 | 0.00 | 0.00 | 74 | 1016.7 |
| 20260510060028 | 51 | 45 | 1.7 | 3.5 | 0.00 | 0.00 | 0.00 | 75 | 1016.8 |
| 20260510055017 | 50 | 90 | 0.9 | 3.5 | 0.00 | 0.00 | 0.00 | 79 | 1016.8 |
| 20260510054016 | 49 | 45 | 0.9 | 2.6 | 0.00 | 0.00 | 0.00 | 79 | 1016.8 |
| 20260510053024 | 47 | 45 | 0.9 | 2.6 | 0.00 | 0.00 | 0.00 | 82 | 1016.9 |
| 20260510051015 | 45 | 90 | 1.7 | 2.6 | 0.00 | 0.00 | 0.00 | 85 | 1016.9 |
| 20260510050019 | 44 | 45 | 0.9 | 3.5 | 0.00 | 0.00 | 0.00 | 87 | 1017.0 |
| 20260510045012 | 43 | 45 | 0.9 | 3.5 | 0.00 | 0.00 | 0.00 | 89 | 1016.9 |
| 20260510044013 | 42 | 45 | 0.9 | 2.6 | 0.00 | 0.00 | 0.00 | 91 | 1017.0 |
| 20260510043015 | 41 | 45 | 0.0 | 1.7 | 0.00 | 0.00 | 0.00 | 92 | 1017.2 |
| 20260510042013 | 40 | 45 | 1.7 | 3.5 | 0.00 | 0.00 | 0.00 | 94 | 1017.1 |
| 20260510040020 | 38 | 45 | 0.9 | 1.7 | 0.00 | 0.00 | 0.00 | 94 | 1017.3 |
| 20260510031006 | 36 | 270 | 0.0 | 0.9 | 0.00 | 0.00 | 0.00 | 94 | 1017.7 |
| 20260510030012 | 37 | 90 | 0.0 | 1.7 | 0.00 | 0.00 | 0.00 | 94 | 1017.7 |
| 20260510025006 | 37 | 90 | 0.0 | 1.7 | 0.00 | 0.00 | 0.00 | 94 | 1017.7 |
| 20260510024011 | 37 | 45 | 0.0 | 0.9 | 0.00 | 0.00 | 0.00 | 94 | 1017.6 |
| 20260510022010 | 38 | 0 | 0.9 | 1.7 | 0.00 | 0.00 | 0.00 | 94 | 1018.0 |
| 20260510021011 | 36 | 45 | 0.0 | 0.9 | 0.00 | 0.00 | 0.00 | 94 | 1018.1 |
| 20260510015010 | 36 | 45 | 0.0 | 0.0 | 0.00 | 0.00 | 0.00 | 94 | 1018.2 |
| 20260510014008 | 37 | 0 | 0.0 | 0.9 | 0.00 | 0.00 | 0.00 | 93 | 1018.1 |
| 20260510013010 | 36 | 0 | 0.0 | 0.0 | 0.00 | 0.00 | 0.00 | 93 | 1018.0 |
| 20260510012009 | 37 | 0 | 0.0 | 0.9 | 0.00 | 0.00 | 0.00 | 93 | 1018.1 |
| 20260510011010 | 37 | 0 | 0.0 | 0.0 | 0.00 | 0.00 | 0.00 | 93 | 1018.3 |
| 20260510010015 | 37 | 0 | 0.0 | 0.0 | 0.00 | 0.00 | 0.00 | 93 | 1018.5 |
| 20260510004008 | 37 | 180 | 0.0 | 0.9 | 0.00 | 0.00 | 0.00 | 93 | 1018.5 |
| 20260510003009 | 37 | 0 | 0.0 | 0.9 | 0.00 | 0.00 | 0.00 | 92 | 1018.5 |
| 20260510002009 | 38 | 180 | 0.0 | 0.9 | 0.00 | 0.00 | 0.00 | 93 | 1018.6 |
| 20260510001011 | 38 | 45 | 0.0 | 0.0 | 0.00 | 0.00 | 0.00 | 92 | 1018.6 |
| 20260509234009 | 39 | 45 | 0.0 | 0.9 | 0.00 | 0.00 | 0.00 | 91 | 1018.8 |
| 20260509233010 | 39 | 45 | 0.0 | 0.0 | 0.00 | 0.00 | 0.00 | 91 | 1019.0 |
| 20260509231006 | 40 | 45 | 0.0 | 1.7 | 0.00 | 0.00 | 0.00 | 89 | 1018.9 |
| 20260509225008 | 42 | 45 | 0.9 | 1.7 | 0.00 | 0.00 | 0.00 | 88 | 1018.9 |
| 20260509224006 | 41 | 0 | 0.0 | 1.7 | 0.00 | 0.00 | 0.00 | 88 | 1019.2 |
| 20260509222009 | 42 | 45 | 0.0 | 1.7 | 0.00 | 0.00 | 0.00 | 86 | 1019.0 |
| 20260509221009 | 43 | 0 | 0.0 | 1.7 | 0.00 | 0.00 | 0.00 | 86 | 1019.1 |
| 20260509220014 | 44 | 180 | 0.9 | 2.6 | 0.00 | 0.00 | 0.00 | 85 | 1019.0 |
| 20260509215008 | 43 | 270 | 0.9 | 1.7 | 0.00 | 0.00 | 0.00 | 87 | 1019.0 |
| 20260509214008 | 43 | 270 | 0.0 | 0.9 | 0.00 | 0.00 | 0.00 | 85 | 1019.0 |
| 20260509213008 | 44 | 225 | 0.0 | 0.9 | 0.00 | 0.00 | 0.00 | 83 | 1018.8 |
| 20260509211009 | 46 | 270 | 0.0 | 0.9 | 0.00 | 0.00 | 0.00 | 80 | 1018.8 |
| 20260509205008 | 48 | 90 | 0.9 | 1.7 | 0.00 | 0.00 | 0.00 | 78 | 1018.7 |
| 20260509204009 | 48 | 90 | 1.7 | 2.6 | 0.00 | 0.00 | 0.00 | 77 | 1018.6 |
| 20260509202009 | 49 | 45 | 1.7 | 2.6 | 0.00 | 0.00 | 0.00 | 76 | 1018.5 |
| 20260509201007 | 50 | 90 | 1.7 | 2.6 | 0.00 | 0.00 | 0.00 | 75 | 1018.6 |
| 20260509200012 | 50 | 45 | 1.7 | 2.6 | 0.00 | 0.00 | 0.00 | 75 | 1018.6 |
| 20260509195008 | 51 | 90 | 1.7 | 2.6 | 0.00 | 0.00 | 0.00 | 73 | 1018.4 |
| 20260509194008 | 52 | 45 | 1.7 | 2.6 | 0.00 | 0.00 | 0.00 | 72 | 1018.5 |
| 20260509193010 | 52 | 45 | 1.7 | 2.6 | 0.00 | 0.00 | 0.00 | 71 | 1018.4 |
| 20260509192008 | 53 | 45 | 1.7 | 2.6 | 0.00 | 0.00 | 0.00 | 69 | 1018.4 |
| 20260509191009 | 53 | 0 | 1.7 | 2.6 | 0.00 | 0.00 | 0.00 | 68 | 1018.5 |
| 20260509190012 | 54 | 45 | 0.9 | 2.6 | 0.00 | 0.00 | 0.00 | 67 | 1018.4 |
| 20260509185008 | 55 | 45 | 0.9 | 2.6 | 0.00 | 0.00 | 0.00 | 67 | 1018.2 |
| 20260509184009 | 55 | 90 | 0.9 | 3.5 | 0.00 | 0.00 | 0.00 | 66 | 1018.2 |
| 20260509183009 | 56 | 45 | 0.9 | 2.6 | 0.00 | 0.00 | 0.00 | 65 | 1018.2 |
| 20260509182008 | 56 | 90 | 0.9 | 2.6 | 0.00 | 0.00 | 0.00 | 63 | 1018.1 |
| 20260509180012 | 57 | 90 | 0.9 | 3.5 | 0.00 | 0.00 | 0.00 | 60 | 1018.0 |
| 20260509173010 | 58 | 45 | 1.7 | 3.5 | 0.00 | 0.00 | 0.00 | 58 | 1018.1 |
| 20260509172008 | 58 | 90 | 1.7 | 2.6 | 0.00 | 0.00 | 0.00 | 58 | 1018.1 |
| 20260509171008 | 58 | 315 | 1.7 | 3.5 | 0.00 | 0.00 | 0.00 | 56 | 1018.0 |
| 20260509170010 | 59 | 45 | 0.9 | 3.5 | 0.00 | 0.00 | 0.00 | 56 | 1018.0 |
| 20260509165008 | 59 | 0 | 1.7 | 2.6 | 0.00 | 0.00 | 0.00 | 54 | 1018.0 |
| 20260509164008 | 60 | 0 | 0.9 | 2.6 | 0.00 | 0.00 | 0.00 | 53 | 1017.9 |
| 20260509163014 | 59 | 45 | 0.9 | 3.5 | 0.00 | 0.00 | 0.00 | 55 | 1018.0 |
| 20260509162009 | 59 | 90 | 1.7 | 3.5 | 0.00 | 0.00 | 0.00 | 54 | 1018.0 |
| 20260509161008 | 60 | 45 | 1.7 | 3.5 | 0.00 | 0.00 | 0.00 | 54 | 1018.0 |
| 20260509160012 | 59 | 45 | 2.6 | 4.3 | 0.00 | 0.00 | 0.00 | 54 | 1018.0 |
| 20260509154009 | 60 | 90 | 2.6 | 4.3 | 0.00 | 0.00 | 0.00 | 55 | 1018.0 |
| 20260509153009 | 60 | 0 | 2.6 | 4.3 | 0.00 | 0.00 | 0.00 | 54 | 1018.0 |
| 20260509152009 | 60 | 45 | 1.7 | 3.5 | 0.00 | 0.00 | 0.00 | 54 | 1018.0 |
| 20260509151009 | 61 | 45 | 2.6 | 5.2 | 0.00 | 0.00 | 0.00 | 55 | 1017.9 |
| 20260509145007 | 60 | 45 | 2.6 | 4.3 | 0.00 | 0.00 | 0.00 | 55 | 1018.1 |
| 20260509144009 | 61 | 0 | 2.6 | 4.3 | 0.00 | 0.00 | 0.00 | 55 | 1017.9 |
| 20260509143009 | 61 | 45 | 2.6 | 4.3 | 0.00 | 0.00 | 0.00 | 54 | 1018.0 |
| 20260509142011 | 61 | 45 | 2.6 | 5.2 | 0.00 | 0.00 | 0.00 | 54 | 1018.0 |
| 20260509141007 | 61 | 0 | 2.6 | 4.3 | 0.00 | 0.00 | 0.00 | 54 | 1018.0 |
| 20260509135008 | 64 | 45 | 3.5 | 6.1 | 0.00 | 0.00 | 0.00 | 53 | 1018.1 |
| 20260509134009 | 64 | 45 | 3.5 | 6.1 | 0.00 | 0.00 | 0.00 | 52 | 1018.1 |
| 20260509132009 | 59 | 45 | 1.7 | 3.5 | 0.00 | 0.00 | 0.00 | 56 | 1018.7 |
| 20260509131006 | 59 | 180 | 1.7 | 3.5 | 0.00 | 0.00 | 0.00 | 57 | 1018.8 |
| 20260509130013 | 58 | 0 | 2.6 | 4.3 | 0.00 | 0.00 | 0.00 | 58 | 1018.8 |
| 20260509125007 | 59 | 0 | 2.6 | 3.5 | 0.00 | 0.00 | 0.00 | 58 | 1018.7 |
| 20260509124007 | 59 | 0 | 2.6 | 7.0 | 0.00 | 0.00 | 0.00 | 57 | 1018.9 |
| 20260509123010 | 59 | 45 | 2.6 | 3.5 | 0.00 | 0.00 | 0.00 | 58 | 1018.9 |
| 20260509122008 | 59 | 180 | 1.7 | 3.5 | 0.00 | 0.00 | 0.00 | 58 | 1018.9 |
| 20260509121009 | 59 | 0 | 2.6 | 4.3 | 0.00 | 0.00 | 0.00 | 59 | 1018.9 |
| 20260509120012 | 60 | 45 | 2.6 | 5.2 | 0.00 | 0.00 | 0.00 | 59 | 1018.8 |
| 20260509115008 | 60 | 270 | 1.7 | 3.5 | 0.00 | 0.00 | 0.00 | 59 | 1018.9 |
| 20260509114009 | 60 | 90 | 1.7 | 4.3 | 0.00 | 0.00 | 0.00 | 56 | 1018.9 |
| 20260509113010 | 60 | 180 | 1.7 | 3.5 | 0.00 | 0.00 | 0.00 | 60 | 1018.9 |
| 20260509110013 | 60 | 90 | 1.7 | 3.5 | 0.00 | 0.00 | 0.00 | 57 | 1018.9 |
| 20260509105009 | 61 | 45 | 0.9 | 3.5 | 0.00 | 0.00 | 0.00 | 56 | 1019.0 |
| 20260509104009 | 60 | 180 | 3.5 | 6.1 | 0.00 | 0.00 | 0.00 | 57 | 1018.9 |
| 20260509103010 | 59 | 0 | 2.6 | 4.3 | 0.00 | 0.00 | 0.00 | 59 | 1019.1 |
| 20260509102008 | 58 | 225 | 0.9 | 1.7 | 0.00 | 0.00 | 0.00 | 69 | 1019.1 |
| 20260509100014 | 58 | 225 | 0.9 | 1.7 | 0.00 | 0.00 | 0.00 | 69 | 1019.1 |
| 20260509095008 | 58 | 225 | 0.9 | 1.7 | 0.00 | 0.00 | 0.00 | 69 | 1019.1 |
| 20260509094010 | 58 | 225 | 0.9 | 1.7 | 0.00 | 0.00 | 0.00 | 69 | 1019.1 |
| 20260509092008 | 58 | 225 | 0.9 | 1.7 | 0.00 | 0.00 | 0.00 | 69 | 1019.1 |
| 20260509090009 | 58 | 225 | 0.9 | 1.7 | 0.00 | 0.00 | 0.00 | 69 | 1019.1 |
| 20260509085008 | 58 | 225 | 0.9 | 1.7 | 0.00 | 0.00 | 0.00 | 69 | 1019.1 |
| 20260509084008 | 58 | 225 | 0.9 | 1.7 | 0.00 | 0.00 | 0.00 | 69 | 1019.1 |
| 20260509083010 | 58 | 225 | 0.9 | 1.7 | 0.00 | 0.00 | 0.00 | 69 | 1019.1 |
| 20260509082009 | 58 | 225 | 0.9 | 1.7 | 0.00 | 0.00 | 0.00 | 69 | 1019.1 |
| 20260509081010 | 58 | 225 | 0.9 | 1.7 | 0.00 | 0.00 | 0.00 | 69 | 1019.1 |
| 20260509080012 | 58 | 45 | 1.7 | 4.3 | 0.00 | 0.00 | 0.00 | 68 | 1019.3 |
| 20260509075008 | 57 | 270 | 0.9 | 2.6 | 0.00 | 0.00 | 0.00 | 70 | 1019.4 |
| 20260509074008 | 56 | 180 | 0.9 | 2.6 | 0.00 | 0.00 | 0.00 | 70 | 1019.4 |
| 20260509071009 | 55 | 180 | 0.9 | 2.6 | 0.00 | 0.00 | 0.00 | 76 | 1019.4 |
| 20260509070013 | 53 | 0 | 1.7 | 3.5 | 0.00 | 0.00 | 0.00 | 77 | 1019.7 |
| 20260509065009 | 53 | 90 | 0.9 | 1.7 | 0.00 | 0.00 | 0.00 | 78 | 1019.6 |